"2009-06-20 00:00:00",991025,3.361,123.1,10.44,0.248,17.14,107.9906,19.74,20.77,32.67,0,110.9,13.18,20.56,85.1
"2009-06-20 00:00:30",991026,3.866,137.2,6.146,0.445,17.1,107.9906,19.74,20.76,32.61,0,110.9,13.18,20.56,99.2
"2009-06-20 00:01:00",991027,3.918,140.7,3.459,0.236,17.16,107.9906,19.74,20.77,32.48,0,110.9,13.17,20.56,102.7
"2009-06-20 00:01:30",991028,4.23,139.4,4.752,0.551,17.15,107.9906,19.74,20.77,32.5,0,110.9,13.17,20.56,101.4
"2009-06-20 00:02:00",991029,3.947,114.9,3.664,0.344,17.21,107.9909,19.74,20.76,32.88,0,110.9,13.17,20.56,76.9
"2009-06-20 00:02:30",991030,4.612,99.9,5.974,0.349,17.19,107.9909,19.74,20.76,32.78,0,110.9,13.17,20.56,61.9
"2009-06-20 00:03:00",991031,4.472,103.6,7.956,0.246,17.17,107.9906,19.74,20.77,32.68,0,110.9,13.17,20.56,65.6
"2009-06-20 00:03:30",991032,4.092,106.9,6.707,0.405,17.16,107.9908,19.74,20.78,32.74,0,110.9,13.17,20.56,68.9
"2009-06-20 00:04:00",991033,4.276,109.1,3.957,0.505,17.15,107.9925,19.74,20.78,32.67,0,110.9,13.17,20.56,71.1
"2009-06-20 00:04:30",991034,4.443,100.3,3.324,0.312,17.17,107.9967,19.75,20.78,32.7,0,110.9,13.17,20.57,62.3
"2009-06-20 00:05:00",991035,3.835,113.9,3.521,0.382,17.16,108.001,19.76,20.78,32.76,0,110.9,13.17,20.58,75.9
"2009-06-20 00:05:30",991036,4.129,107.3,5.206,0.265,17.17,108.008,19.78,20.77,32.78,0,110.9,13.17,20.60,69.3
"2009-06-20 00:06:00",991037,4.759,111.2,3.733,0.757,17.3,108.0122,19.79,20.81,33.1,0,110.9,13.17,20.61,73.2
"2009-06-20 00:06:30",991038,5.047,122.5,4.42,0.304,17.22,108.0103,19.79,20.8,33.06,0,110.9,13.17,20.61,84.5
"2009-06-20 00:07:00",991039,4.672,113,9.7,0.35,17.28,107.9959,19.75,20.77,33.18,0,110.9,13.18,20.57,75.0
"2009-06-20 00:07:30",991040,5.345,109.1,3.948,0.463,17.31,107.9912,19.74,20.77,33.17,0,110.9,13.18,20.56,71.1
"2009-06-20 00:08:00",991041,4.737,104.3,5.513,0.234,17.26,107.9912,19.74,20.75,33.39,0,110.9,13.18,20.56,66.3
"2009-06-20 00:08:30",991042,5.264,114.4,2.554,0.328,17.21,107.9915,19.74,20.74,33.04,0,110.9,13.18,20.56,76.4
"2009-06-20 00:09:00",991043,5.937,117.9,7.812,0.341,17.33,107.9924,19.74,20.73,33.17,0,110.9,13.18,20.56,79.9
"2009-06-20 00:09:30",991044,6.118,117.4,9.05,0.577,17.27,107.9912,19.74,20.72,32.84,0,110.9,13.18,20.56,79.4
"2009-06-20 00:10:00",991045,4.446,109.7,4.123,0.68,17.34,107.9924,19.74,20.73,33.13,0,110.9,13.18,20.56,71.7
"2009-06-20 00:10:30",991046,5.402,121.8,8.3,0.488,17.3,107.9918,19.74,20.73,33.21,0,110.9,13.18,20.56,83.8
"2009-06-20 00:11:00",991047,5.695,126.7,3.028,0.273,17.27,107.9921,19.74,20.74,33.17,0,110.9,13.18,20.56,88.7
"2009-06-20 00:11:30",991048,5.677,127.6,2.069,0.244,17.27,107.9924,19.74,20.74,33.14,0,110.9,13.18,20.56,89.6
"2009-06-20 00:12:00",991049,4.592,131.8,5.908,0.453,17.27,107.9939,19.74,20.75,33.11,0,110.9,13.18,20.56,93.8
"2009-06-20 00:12:30",991050,4.994,128.7,5.167,0.62,17.26,107.9945,19.75,20.74,33.15,0,110.9,13.18,20.57,90.7
"2009-06-20 00:13:00",991051,5.639,123.5,4.453,0.288,17.35,107.993,19.74,20.75,33.36,0,110.9,13.18,20.56,85.5
"2009-06-20 00:13:30",991052,4.969,123.7,4.78,0.517,17.3,107.9936,19.74,20.75,33.23,0,110.9,13.18,20.56,85.7
"2009-06-20 00:14:00",991053,4.368,126,2.693,0.175,17.22,107.9927,19.74,20.76,33.07,0,110.9,13.18,20.56,88.0
"2009-06-20 00:14:30",991054,4.751,123.8,4.038,0.099,17.16,107.9924,19.74,20.77,32.72,0,110.9,13.18,20.56,85.8
"2009-06-20 00:15:00",991055,4.171,123.2,4.268,0.336,17.18,107.9933,19.74,20.77,32.75,0,110.9,13.18,20.56,85.2
"2009-06-20 00:15:30",991056,4.729,131.8,3.962,0.408,17.16,107.9942,19.74,20.77,33.12,0,110.9,13.18,20.57,93.8
"2009-06-20 00:16:00",991057,4.93,128.7,4.877,0.389,17.18,107.993,19.74,20.78,32.95,0,110.9,13.18,20.56,90.7
"2009-06-20 00:16:30",991058,5.212,123,2.265,0.178,17.22,107.9942,19.74,20.78,32.65,0,110.9,13.18,20.57,85.0
"2009-06-20 00:17:00",991059,4.66,129.8,5.613,0.301,17.16,107.9936,19.74,20.77,32.44,0,110.9,13.18,20.56,91.8
"2009-06-20 00:17:30",991060,4.332,133.4,2.737,0.289,17.14,107.9933,19.74,20.78,32.48,0,110.9,13.18,20.56,95.4
"2009-06-20 00:18:00",991061,4.185,134.3,1.696,0.154,17.14,107.9951,19.75,20.78,32.53,0,110.9,13.18,20.57,96.3
"2009-06-20 00:18:30",991062,4.166,128.5,3.311,0.173,17.17,107.9942,19.74,20.78,32.52,0,110.9,13.18,20.57,90.5
"2009-06-20 00:19:00",991063,4.514,123.8,2.494,0.123,17.18,107.9933,19.74,20.78,32.41,0,110.9,13.17,20.56,85.8
"2009-06-20 00:19:30",991064,4.289,124.8,3.411,0.312,17.17,107.9945,19.75,20.79,32.3,0,110.9,13.17,20.57,86.8
"2009-06-20 00:20:00",991065,4.937,121.6,4.656,0.428,17.29,107.9927,19.74,20.79,33.12,0,110.9,13.17,20.56,83.6
"2009-06-20 00:20:30",991066,5.184,124.9,4.281,0.226,17.29,107.9954,19.75,20.79,33.5,0,110.9,13.17,20.57,86.9
"2009-06-20 00:21:00",991067,5.387,117.3,4.242,0.218,17.27,107.9939,19.74,20.8,33.46,0,110.9,13.17,20.56,79.3
"2009-06-20 00:21:30",991068,5.468,117.1,4.774,0.23,17.3,107.993,19.74,20.79,33.41,0,110.9,13.17,20.56,79.1
"2009-06-20 00:22:00",991069,6.042,127.1,2.879,0.287,17.33,107.996,19.75,20.79,33.38,0,110.9,13.17,20.57,89.1
"2009-06-20 00:22:30",991070,5.614,126.6,3.811,0.13,17.3,107.9978,19.75,20.77,33.12,0,110.9,13.17,20.57,88.6
"2009-06-20 00:23:00",991071,4.809,124.9,3.879,0.574,17.36,107.9945,19.75,20.79,33.16,0,110.9,13.17,20.57,86.9
"2009-06-20 00:23:30",991072,4.344,126.8,2.906,0.283,17.23,108.0009,19.76,20.78,33.09,0,110.9,13.18,20.58,88.8
"2009-06-20 00:24:00",991073,4.957,127.8,2.469,0.327,17.18,107.9973,19.75,20.77,32.84,0,110.9,13.18,20.57,89.8
"2009-06-20 00:24:30",991074,5.204,129.3,2.314,0.297,17.25,107.989,19.73,20.78,32.87,0,110.9,13.18,20.55,91.3
"2009-06-20 00:25:00",991075,5.01,119,3.939,0.239,17.31,107.98,19.71,20.77,32.96,0,110.9,13.18,20.53,81.0
"2009-06-20 00:25:30",991076,5.349,125,2.672,0.205,17.29,107.977,19.7,20.75,33.36,0,110.9,13.18,20.52,87.0
"2009-06-20 00:26:00",991077,5.637,125.2,4.711,0.221,17.29,107.9751,19.7,20.74,33.34,0,110.9,13.18,20.52,87.2
"2009-06-20 00:26:30",991078,5.158,121.3,2.878,0.214,17.32,107.9733,19.69,20.75,33.45,0,110.9,13.18,20.51,83.3
"2009-06-20 00:27:00",991079,4.779,122.7,3.905,0.113,17.25,107.9729,19.69,20.74,33.3,0,110.9,13.18,20.51,84.7
"2009-06-20 00:27:30",991080,4.518,122.3,1.306,0.206,17.23,107.9735,19.69,20.74,33.22,0,110.9,13.18,20.51,84.3
"2009-06-20 00:28:00",991081,4.679,126.2,2.282,0.246,17.19,107.9744,19.69,20.74,33.32,0,110.9,13.18,20.51,88.2
"2009-06-20 00:28:30",991082,5.127,126.8,3.139,0.191,17.26,107.9753,19.7,20.74,33.24,0,110.9,13.18,20.52,88.8
"2009-06-20 00:29:00",991083,5.104,125.2,3.67,0.267,17.29,107.975,19.7,20.72,33.17,0,110.9,13.18,20.52,87.2
"2009-06-20 00:29:30",991084,5.223,126.8,3.213,0.533,17.24,107.979,19.71,20.72,33.17,0,110.9,13.18,20.53,88.8
"2009-06-20 00:30:00",991085,5.751,123.1,1.787,0.309,17.23,107.9766,19.7,20.7,33.6,0,110.9,13.18,20.52,85.1
"2009-06-20 00:30:30",991086,5.475,117.6,2.565,0.24,17.3,107.9733,19.69,20.7,33.96,0,110.9,13.18,20.51,79.6
"2009-06-20 00:31:00",991087,5.472,112.2,2.61,0.32,17.3,107.9688,19.68,20.71,34.24,0,110.9,13.18,20.50,74.2
"2009-06-20 00:31:30",991088,5.5,107.3,3.716,0.258,17.38,107.9609,19.66,20.68,34.46,0,110.9,13.18,20.48,69.3
"2009-06-20 00:32:00",991089,5.28,113.2,7.43,0.261,17.42,107.9551,19.64,20.69,34.82,0,110.9,13.18,20.47,75.2
"2009-06-20 00:32:30",991090,5.212,111.8,3.557,0.26,17.3,107.9495,19.63,20.67,34.74,0,110.9,13.18,20.45,73.8
"2009-06-20 00:33:00",991091,5.164,112.3,3.277,0.295,17.28,107.9489,19.63,20.66,34.41,0,110.9,13.18,20.45,74.3
"2009-06-20 00:33:30",991092,5.403,119,3.626,0.182,17.32,107.9498,19.63,20.66,34.46,0,110.9,13.18,20.45,81.0
"2009-06-20 00:34:00",991093,4.915,124.9,5.107,0.249,17.33,107.9501,19.63,20.67,34.63,0,110.9,13.18,20.45,86.9
"2009-06-20 00:34:30",991094,5.378,130.4,2.948,0.269,17.3,107.9504,19.63,20.66,34.76,0,110.9,13.18,20.45,92.4
"2009-06-20 00:35:00",991095,5.256,124.6,7.206,0.244,17.34,107.9504,19.63,20.65,34.94,0,110.9,13.18,20.45,86.6
"2009-06-20 00:35:30",991096,6.146,116.6,3.964,0.208,17.38,107.9504,19.63,20.63,35.01,0,110.9,13.18,20.45,78.6
"2009-06-20 00:36:00",991097,5.593,110.4,2.552,0.231,17.35,107.9479,19.63,20.63,34.64,0,110.9,13.18,20.45,72.4
"2009-06-20 00:36:30",991098,5.531,117.3,8.41,0.256,17.36,107.9395,19.6,20.64,34.63,0,110.9,13.18,20.42,79.3
"2009-06-20 00:37:00",991099,5.502,134.4,4.689,0.453,17.41,107.9344,19.59,20.63,34.8,0,110.9,13.17,20.41,96.4
"2009-06-20 00:37:30",991100,5.363,129.9,4.024,0.462,17.36,107.9319,19.58,20.6,34.33,0,110.9,13.18,20.41,91.9
"2009-06-20 00:38:00",991101,4.68,134.8,3.938,0.411,17.42,107.9274,19.57,20.61,34.6,0,110.9,13.18,20.39,96.8
"2009-06-20 00:38:30",991102,5.002,129.2,5.21,0.304,17.34,107.9288,19.58,20.59,33.91,0,110.9,13.18,20.40,91.2
"2009-06-20 00:39:00",991103,4.361,122.9,4.585,0.613,17.45,107.9318,19.58,20.61,34.82,0,110.9,13.18,20.41,84.9
"2009-06-20 00:39:30",991104,4.471,129,2.808,0.139,17.32,107.9329,19.59,20.61,34.73,0,110.9,13.18,20.41,91.0
"2009-06-20 00:40:00",991105,4.75,133.3,2.239,0.277,17.38,107.9372,19.6,20.6,34.72,0,110.9,13.18,20.42,95.3
"2009-06-20 00:40:30",991106,4.43,130.6,5.684,0.585,17.42,107.9412,19.61,20.6,35.12,0,110.9,13.18,20.43,92.6
"2009-06-20 00:41:00",991107,4.751,130.6,7.753,0.574,17.33,107.9354,19.59,20.59,35.09,0,110.9,13.18,20.41,92.6
"2009-06-20 00:41:30",991108,4.756,127.9,4.042,0.326,17.34,107.9348,19.59,20.61,34.26,0,110.9,13.18,20.41,89.9
"2009-06-20 00:42:00",991109,4.434,130.8,3.242,0.424,17.3,107.9391,19.6,20.59,33.9,0,110.9,13.18,20.42,92.8
"2009-06-20 00:42:30",991110,4.42,121.4,4.418,0.294,17.32,107.9416,19.61,20.6,34.45,0,110.9,13.18,20.43,83.4
"2009-06-20 00:43:00",991111,4.244,130.6,3.461,0.336,17.26,107.9484,19.63,20.6,34.49,0,110.9,13.18,20.45,92.6
"2009-06-20 00:43:30",991112,4.758,123.5,1.894,0.197,17.29,107.9522,19.64,20.59,34.21,0,110.9,13.18,20.46,85.5
"2009-06-20 00:44:00",991113,4.699,127.3,2.651,0.126,17.3,107.9532,19.64,20.61,33.74,0,110.9,13.18,20.46,89.3
"2009-06-20 00:44:30",991114,4.624,125.8,2.333,0.107,17.3,107.9541,19.64,20.61,33.62,0,110.9,13.18,20.46,87.8
"2009-06-20 00:45:00",991115,4.609,128,4.352,0.151,17.32,107.9542,19.64,20.62,33.6,0,110.9,13.18,20.46,90.0
"2009-06-20 00:45:30",991116,4.492,129.3,3.097,0.233,17.31,107.9566,19.65,20.62,33.84,0,110.9,13.18,20.47,91.3
"2009-06-20 00:46:00",991117,5.345,118.4,5.235,0.705,17.33,107.9554,19.65,20.62,34.18,0,110.9,13.18,20.47,80.4
"2009-06-20 00:46:30",991118,5.577,116.7,3.616,0.319,17.26,107.9535,19.64,20.62,34.05,0,110.9,13.18,20.46,78.7
"2009-06-20 00:47:00",991119,5.385,122.3,3.014,0.259,17.32,107.9488,19.63,20.63,34.08,0,110.9,13.18,20.45,84.3
"2009-06-20 00:47:30",991120,5.384,124,2.267,0.218,17.35,107.9432,19.61,20.6,34.32,0,110.9,13.18,20.43,86.0
"2009-06-20 00:48:00",991121,4.967,123.4,4.156,0.249,17.35,107.9353,19.59,20.62,34.43,0,110.9,13.18,20.41,85.4
"2009-06-20 00:48:30",991122,5.286,127.2,5.047,0.252,17.39,107.9334,19.59,20.6,34.41,0,110.9,13.18,20.41,89.2
"2009-06-20 00:49:00",991123,5.409,124.5,5.716,0.199,17.43,107.9289,19.58,20.62,34.6,0,110.9,13.18,20.40,86.5
"2009-06-20 00:49:30",991124,4.953,117.7,3.194,0.274,17.42,107.9264,19.57,20.61,34.64,0,110.9,13.19,20.39,79.7
"2009-06-20 00:50:00",991125,4.727,123.4,2.896,0.328,17.35,107.9258,19.57,20.6,34.12,0,110.9,13.19,20.39,85.4
"2009-06-20 00:50:30",991126,4.365,129.2,3.075,0.237,17.29,107.9258,19.57,20.6,33.78,0,110.9,13.18,20.39,91.2
"2009-06-20 00:51:00",991127,4.364,121.8,2.22,0.135,17.34,107.9258,19.57,20.61,34.07,0,110.9,13.19,20.39,83.8
"2009-06-20 00:51:30",991128,4.673,121.7,3.523,0.138,17.3,107.9258,19.57,20.6,33.98,0,110.9,13.19,20.39,83.7
"2009-06-20 00:52:00",991129,4.804,120.1,3.596,0.197,17.33,107.9258,19.57,20.6,33.93,0,110.9,13.19,20.39,82.1
"2009-06-20 00:52:30",991130,4.79,121.1,2.224,0.269,17.34,107.9258,19.57,20.6,34.12,0,110.9,13.18,20.39,83.1
"2009-06-20 00:53:00",991131,4.873,126.5,3.065,0.175,17.32,107.9258,19.57,20.6,33.98,0,110.9,13.18,20.39,88.5
"2009-06-20 00:53:30",991132,5.04,125.7,3.324,0.247,17.36,107.9258,19.57,20.59,33.86,0,110.9,13.18,20.39,87.7
"2009-06-20 00:54:00",991133,5.223,132.5,3.71,0.299,17.4,107.9258,19.57,20.58,33.81,0,110.9,13.18,20.39,94.5
"2009-06-20 00:54:30",991134,5.269,127.1,4.559,0.24,17.37,107.9258,19.57,20.58,33.82,0,110.9,13.18,20.39,89.1
"2009-06-20 00:55:00",991135,5.443,121.5,3.36,0.231,17.42,107.925,19.57,20.58,33.86,0,110.9,13.18,20.39,83.5
"2009-06-20 00:55:30",991136,5.446,120.2,3.006,0.193,17.42,107.9216,19.56,20.58,33.96,0,110.9,13.18,20.38,82.2
"2009-06-20 00:56:00",991137,5.545,122.7,1.773,0.098,17.41,107.9151,19.54,20.57,33.9,0,110.9,13.18,20.36,84.7
"2009-06-20 00:56:30",991138,5.803,129.1,2.42,0.23,17.45,107.9064,19.52,20.56,34.02,0,110.9,13.18,20.34,91.1
"2009-06-20 00:57:00",991139,5.957,130.7,4.859,0.504,17.52,107.898,19.5,20.56,34.18,0,110.9,13.18,20.32,92.7
"2009-06-20 00:57:30",991140,5.133,122.3,3.673,0.426,17.56,107.8952,19.49,20.57,34.34,0,110.9,13.18,20.31,84.3
"2009-06-20 00:58:00",991141,4.48,124.5,6.893,0.196,17.45,107.8949,19.49,20.57,34.26,0,110.9,13.18,20.31,86.5
"2009-06-20 00:58:30",991142,4.53,128.5,3.381,0.201,17.4,107.8952,19.49,20.55,34.06,0,110.9,13.18,20.31,90.5
"2009-06-20 00:59:00",991143,4.981,123.8,2.886,0.241,17.4,107.8946,19.49,20.56,33.88,0,110.9,13.19,20.31,85.8
"2009-06-20 00:59:30",991144,4.908,119.3,3.122,0.436,17.49,107.8938,19.49,20.55,34.17,0,110.9,13.19,20.31,81.3
"2009-06-20 01:00:00",991145,4.716,127,2.667,0.213,17.45,107.8935,19.49,20.55,34.31,0,110.9,13.19,20.31,89.0
"2009-06-20 01:00:30",991146,4.576,128,4.045,0.146,17.44,107.8952,19.49,20.55,34.37,0,110.9,13.19,20.31,90.0
"2009-06-20 01:01:00",991147,4.55,127.7,2.149,0.274,17.45,107.8952,19.49,20.54,34.55,0,110.9,13.19,20.31,89.7
"2009-06-20 01:01:30",991148,4.366,124.3,2.608,0.302,17.54,107.898,19.5,20.54,34.69,0,110.9,13.19,20.32,86.3
"2009-06-20 01:02:00",991149,5.226,128.3,3.478,0.236,17.49,107.8985,19.5,20.54,35.14,0,110.9,13.19,20.32,90.3
"2009-06-20 01:02:30",991150,5.417,131.9,1.99,0.193,17.47,107.9005,19.5,20.55,34.63,0,110.9,13.19,20.32,93.9
"2009-06-20 01:03:00",991151,5.744,130.6,3.178,0.257,17.45,107.9047,19.52,20.54,34.29,0,110.9,13.19,20.34,92.6
"2009-06-20 01:03:30",991152,5.604,136.3,3.825,0.183,17.45,107.9039,19.51,20.54,34.5,0,110.9,13.19,20.33,98.3
"2009-06-20 01:04:00",991153,5.308,128.1,3.156,0.329,17.44,107.9027,19.51,20.55,34.4,0,110.9,13.19,20.33,90.1
"2009-06-20 01:04:30",991154,5.369,120.8,1.912,0.297,17.42,107.8997,19.5,20.54,34.44,0,110.9,13.19,20.32,82.8
"2009-06-20 01:05:00",991155,5.466,122.9,2.619,0.193,17.45,107.8957,19.49,20.54,34.94,0,110.9,13.19,20.31,84.9
"2009-06-20 01:05:30",991156,5.576,125,4.173,0.18,17.45,107.8921,19.48,20.54,35.25,0,110.9,13.19,20.30,87.0
"2009-06-20 01:06:00",991157,5.833,120.2,2.992,0.236,17.47,107.8921,19.48,20.55,35.62,0,110.9,13.19,20.30,82.2
"2009-06-20 01:06:30",991158,5.849,119.8,2.547,0.237,17.47,107.8921,19.48,20.54,36.11,0,110.9,13.19,20.30,81.8
"2009-06-20 01:07:00",991159,5.199,120.5,1.442,0.218,17.45,107.8921,19.48,20.54,36.27,0,110.9,13.19,20.30,82.5
"2009-06-20 01:07:30",991160,5.861,123.1,2.425,0.237,17.46,107.8912,19.48,20.52,36.18,0,110.9,13.19,20.30,85.1
"2009-06-20 01:08:00",991161,5.694,126.1,1.511,0.336,17.49,107.8856,19.47,20.53,36.11,0,110.9,13.19,20.29,88.1
"2009-06-20 01:08:30",991162,5.927,126.2,1.958,0.31,17.47,107.8713,19.43,20.51,35.89,0,110.9,13.19,20.25,88.2
"2009-06-20 01:09:00",991163,6.293,127.5,1.901,0.284,17.53,107.8589,19.4,20.52,35.87,0,110.9,13.19,20.22,89.5
"2009-06-20 01:09:30",991164,6.111,131.7,1.554,0.146,17.52,107.8583,19.4,20.48,35.66,0,110.9,13.19,20.22,93.7
"2009-06-20 01:10:00",991165,5.856,132.3,2.437,0.23,17.55,107.8583,19.4,20.48,35.62,0,110.9,13.19,20.22,94.3
"2009-06-20 01:10:30",991166,5.783,127.7,3.669,0.216,17.54,107.8583,19.4,20.48,35.64,0,110.9,13.19,20.22,89.7
"2009-06-20 01:11:00",991167,5.822,130.4,2.015,0.222,17.54,107.8611,19.4,20.47,35.62,0,110.9,13.19,20.22,92.4
"2009-06-20 01:11:30",991168,5.596,128.2,1.695,0.216,17.57,107.8596,19.4,20.46,35.76,0,110.9,13.19,20.22,90.2
"2009-06-20 01:12:00",991169,5.951,128.8,2.133,0.375,17.53,107.8608,19.4,20.46,35.7,0,110.9,13.19,20.22,90.8
"2009-06-20 01:12:30",991170,6.07,128.1,2.272,0.207,17.55,107.8576,19.39,20.46,35.4,0,110.9,13.19,20.21,90.1
"2009-06-20 01:13:00",991171,6.499,127.1,2.09,0.241,17.59,107.8528,19.38,20.46,34.86,0,110.9,13.19,20.20,89.1
"2009-06-20 01:13:30",991172,6.646,129,1.609,0.255,17.57,107.8408,19.35,20.44,34.86,0,110.9,13.19,20.17,91.0
"2009-06-20 01:14:00",991173,5.873,123.7,5.14,0.472,17.56,107.8383,19.34,20.44,35.15,0,110.9,13.19,20.16,85.7
"2009-06-20 01:14:30",991174,6.31,128.5,3.338,0.258,17.6,107.8337,19.33,20.43,35.4,0,110.9,13.19,20.15,90.5
"2009-06-20 01:15:00",991175,6.078,122.4,4.103,0.172,17.56,107.837,19.34,20.41,35.53,0,110.9,13.19,20.16,84.4
"2009-06-20 01:15:30",991176,5.907,128.9,3.668,0.306,17.57,107.8419,19.35,20.4,35.67,0,110.9,13.19,20.17,90.9
"2009-06-20 01:16:00",991177,6.049,129.4,2.001,0.292,17.54,107.8425,19.36,20.39,35.39,0,110.9,13.2,20.18,91.4
"2009-06-20 01:16:30",991178,6.177,129.3,3.147,0.494,17.57,107.8447,19.36,20.37,35.54,0,110.9,13.2,20.18,91.3
"2009-06-20 01:17:00",991179,6.235,129.5,1.396,0.248,17.51,107.839,19.35,20.37,35.19,0,110.9,13.2,20.17,91.5
"2009-06-20 01:17:30",991180,6.445,126.2,2.411,0.334,17.59,107.8235,19.31,20.38,35.46,0,110.9,13.2,20.13,88.2
"2009-06-20 01:18:00",991181,5.926,123.9,3.384,0.212,17.58,107.8172,19.29,20.37,35.67,0,110.9,13.2,20.11,85.9
"2009-06-20 01:18:30",991182,6.263,124.2,4.227,0.395,17.56,107.8173,19.29,20.34,35.92,0,110.9,13.2,20.11,86.2
"2009-06-20 01:19:00",991183,6.819,124.6,3.124,0.265,17.57,107.8179,19.29,20.33,35.75,0,110.9,13.2,20.11,86.6
"2009-06-20 01:19:30",991184,6.559,125.7,1.5,0.164,17.57,107.8182,19.29,20.33,35.7,0,110.9,13.2,20.11,87.7
"2009-06-20 01:20:00",991185,6.377,123.9,1.092,0.163,17.61,107.8165,19.29,20.32,35.61,0,110.9,13.2,20.11,85.9
"2009-06-20 01:20:30",991186,6.486,124.9,2.123,0.152,17.56,107.8095,19.27,20.31,35.73,0,110.8,13.2,20.09,86.9
"2009-06-20 01:21:00",991187,6.62,126.4,0.965,0.253,17.58,107.8031,19.25,20.3,35.95,0,110.8,13.2,20.07,88.4
"2009-06-20 01:21:30",991188,6.952,127.6,1.448,0.223,17.57,107.7892,19.22,20.3,36.26,0,110.8,13.2,20.04,89.6
"2009-06-20 01:22:00",991189,6.261,127.3,3,0.439,17.57,107.7878,19.22,20.27,36.42,0,110.8,13.2,20.03,89.3
"2009-06-20 01:22:30",991190,6.535,125.4,1.83,0.416,17.57,107.7893,19.22,20.27,36.43,0,110.8,13.2,20.04,87.4
"2009-06-20 01:23:00",991191,6.456,133.7,2.253,0.417,17.56,107.7908,19.22,20.25,36.85,0,110.9,13.2,20.04,95.7
"2009-06-20 01:23:30",991192,6.594,130.5,1.599,0.406,17.58,107.7897,19.22,20.24,36.81,0,110.9,13.2,20.04,92.5
"2009-06-20 01:24:00",991193,6.833,128.6,1.218,0.062,17.55,107.7848,19.21,20.22,36.06,0,110.9,13.2,20.03,90.6
"2009-06-20 01:24:30",991194,6.801,128.9,1.165,0.09,17.57,107.7761,19.19,20.22,35.71,0,110.8,13.2,20.00,90.9
"2009-06-20 01:25:00",991195,6.404,129.8,1.199,0.151,17.64,107.7617,19.15,20.2,36.23,0,110.9,13.2,19.97,91.8
"2009-06-20 01:25:30",991196,6.428,128.3,1.874,0.105,17.54,107.7598,19.14,20.19,35.31,0,110.9,13.2,19.96,90.3
"2009-06-20 01:26:00",991197,6.541,129.2,1.006,0.117,17.63,107.7598,19.14,20.19,35.44,0,110.9,13.2,19.96,91.2
"2009-06-20 01:26:30",991198,6.241,127.3,0.996,0.181,17.55,107.7598,19.14,20.19,36.54,0,110.9,13.2,19.96,89.3
"2009-06-20 01:27:00",991199,6.042,129.2,1.302,0.068,17.58,107.7598,19.14,20.17,35.5,0,110.9,13.2,19.96,91.2
"2009-06-20 01:27:30",991200,6.346,126.8,1.304,0.093,17.54,107.7598,19.14,20.16,35.95,0,110.8,13.2,19.96,88.8
"2009-06-20 01:28:00",991201,6.128,124.2,1.63,0.09,17.53,107.7595,19.14,20.16,36.26,0,110.8,13.19,19.96,86.2
"2009-06-20 01:28:30",991202,6.496,124.8,1.073,0.239,17.6,107.7572,19.14,20.15,36.16,0,110.8,13.19,19.96,86.8
"2009-06-20 01:29:00",991203,6.829,125.2,1.69,0.324,17.59,107.7407,19.09,20.14,36.28,0,110.8,13.2,19.91,87.2
"2009-06-20 01:29:30",991204,6.712,122,1.444,0.197,17.56,107.7291,19.06,20.13,36.9,0,110.8,13.19,19.88,84.0
"2009-06-20 01:30:00",991205,6.241,122.6,1.809,0.224,17.58,107.726,19.06,20.13,37.48,0,110.8,13.2,19.88,84.6
"2009-06-20 01:30:30",991206,6.47,123.5,2.222,0.08,17.56,107.726,19.06,20.11,37.22,0,110.8,13.2,19.88,85.5
"2009-06-20 01:31:00",991207,6.513,124.5,1.123,0.111,17.57,107.726,19.06,20.11,37.43,0,110.8,13.2,19.88,86.5
"2009-06-20 01:31:30",991208,6.641,126.2,0.595,0.077,17.52,107.7258,19.06,20.09,37.16,0,110.8,13.2,19.87,88.2
"2009-06-20 01:32:00",991209,6.627,125.6,1.229,0.065,17.53,107.7201,19.04,20.08,36.12,0,110.8,13.2,19.86,87.6
"2009-06-20 01:32:30",991210,6.599,124,0.803,0.08,17.57,107.7052,19,20.07,35.7,0,110.8,13.2,19.82,86.0
"2009-06-20 01:33:00",991211,6.64,125.1,0.963,0.072,17.55,107.6971,18.98,20.06,35.77,0,110.8,13.2,19.80,87.1
"2009-06-20 01:33:30",991212,6.728,123.8,0.94,0.119,17.56,107.6923,18.97,20.05,36.2,0,110.8,13.2,19.79,85.8
"2009-06-20 01:34:00",991213,6.964,125,1.078,0.097,17.55,107.6923,18.97,20.03,36.48,0,110.8,13.2,19.79,87.0
"2009-06-20 01:34:30",991214,6.878,126.7,0.813,0.144,17.62,107.6923,18.97,20.03,36.65,0,110.8,13.21,19.79,88.7
"2009-06-20 01:35:00",991215,6.798,127.2,0.872,0.105,17.63,107.6923,18.97,20.02,36.55,0,110.8,13.2,19.79,89.2
"2009-06-20 01:35:30",991216,6.906,126.5,0.67,0.06,17.65,107.6912,18.97,20,35.85,0,110.8,13.21,19.79,88.5
"2009-06-20 01:36:00",991217,6.816,125.4,0.559,0.075,17.59,107.6813,18.94,20,35.58,0,110.8,13.21,19.76,87.4
"2009-06-20 01:36:30",991218,6.876,125,0.578,0.041,17.6,107.6687,18.91,19.99,35.66,0,110.8,13.21,19.73,87.0
"2009-06-20 01:37:00",991219,6.891,125.1,1.393,0.108,17.59,107.6625,18.89,19.98,35.68,0,110.8,13.21,19.71,87.1
"2009-06-20 01:37:30",991220,6.944,128,0.96,0.075,17.59,107.6589,18.88,19.96,35.68,0,110.8,13.21,19.70,90.0
"2009-06-20 01:38:00",991221,6.853,126.4,1.483,0.096,17.62,107.6586,18.88,19.96,35.68,0,110.8,13.21,19.70,88.4
"2009-06-20 01:38:30",991222,6.706,126.4,1.155,0.097,17.6,107.6595,18.89,19.94,35.47,0,110.8,13.21,19.70,88.4
"2009-06-20 01:39:00",991223,6.595,126.2,0.694,0.094,17.53,107.6598,18.89,19.92,35.5,0,110.8,13.21,19.70,88.2
"2009-06-20 01:39:30",991224,6.708,127.2,1.312,0.141,17.63,107.6598,18.89,19.93,35.7,0,110.8,13.21,19.70,89.2
"2009-06-20 01:40:00",991225,6.636,124.5,1.578,0.116,17.55,107.6601,18.89,19.93,35.92,0,110.8,13.21,19.71,86.5
"2009-06-20 01:40:30",991226,6.838,127,1.519,0.156,17.58,107.6517,18.87,19.93,36.15,0,110.8,13.21,19.68,89.0
"2009-06-20 01:41:00",991227,7.039,125.5,1.654,0.165,17.58,107.6427,18.84,19.91,36.13,0,110.8,13.21,19.66,87.5
"2009-06-20 01:41:30",991228,7.141,125.5,1.677,0.134,17.62,107.6349,18.82,19.9,36.08,0,110.8,13.21,19.64,87.5
"2009-06-20 01:42:00",991229,7.038,124.5,1.652,0.092,17.56,107.6314,18.81,19.89,36.55,0,110.8,13.21,19.63,86.5
"2009-06-20 01:42:30",991230,7.073,124.2,2.363,0.168,17.57,107.6324,18.82,19.9,36.85,0,110.8,13.21,19.63,86.2
"2009-06-20 01:43:00",991231,6.969,124.4,1.487,0.162,17.61,107.6333,18.82,19.88,36.57,0,110.8,13.21,19.64,86.4
"2009-06-20 01:43:30",991232,6.811,125.6,2.465,0.182,17.58,107.6324,18.82,19.87,36.78,0,110.8,13.21,19.63,87.6
"2009-06-20 01:44:00",991233,7.093,124.8,1.624,0.132,17.57,107.6373,18.83,19.86,36.73,0,110.8,13.21,19.65,86.8
"2009-06-20 01:44:30",991234,6.927,120.2,1.189,0.059,17.54,107.6299,18.81,19.85,36.87,0,110.8,13.21,19.63,82.2
"2009-06-20 01:45:00",991235,6.802,119.5,1.749,0.096,17.58,107.6179,18.78,19.84,36.74,0,110.8,13.2,19.60,81.5
"2009-06-20 01:45:30",991236,6.145,121,1.92,0.215,17.61,107.6153,18.77,19.84,36.9,0,110.8,13.2,19.59,83.0
"2009-06-20 01:46:00",991237,6.483,124.3,1.742,0.389,17.58,107.608,18.75,19.82,37.06,0,110.8,13.2,19.57,86.3
"2009-06-20 01:46:30",991238,6.904,124,1.446,0.132,17.62,107.615,18.77,19.81,37.04,0,110.8,13.2,19.59,86.0
"2009-06-20 01:47:00",991239,7.019,121.6,2.806,0.094,17.63,107.6177,18.78,19.8,36.86,0,110.8,13.2,19.60,83.6
"2009-06-20 01:47:30",991240,7.078,124.2,1.867,0.211,17.64,107.6208,18.79,19.78,36.77,0,110.8,13.2,19.60,86.2
"2009-06-20 01:48:00",991241,7.177,126.8,1.081,0.135,17.64,107.6135,18.77,19.78,37.1,0,110.8,13.2,19.59,88.8
"2009-06-20 01:48:30",991242,6.932,124.4,1.458,0.139,17.64,107.5992,18.73,19.77,36.95,0,110.8,13.21,19.55,86.4